When you browse on this site, cookies collect data to enhance your experience and personalize the content and advertising you see.
Visit our Privacy Policy to learn more. By continuing to use the site, you agree to this use of cookies and data.
  • In Lithuania
  • List of Countries
  • For 7 days
  • Water Temperature
  • Satellite Maps
  • Weather Map
  • Weather Widgets
  • user-avatar
    Login

    Hourly Weather Oyem

    Today, 22 April, Monday

    Time Temperature Precipitation Wind Pressure Humidity
    00:00 +24°C° 0 mm 1 mps 702 mmHg 98%
    01:00 +21°C° 0 mm 0 mps 702 mmHg 98%
    02:00 +21°C° 0 mm 0 mps 702 mmHg 98%
    03:00 +21°C° 0 mm 0 mps 702 mmHg 98%
    04:00 +21°C° 0 mm 0 mps 702 mmHg 98%
    05:00 +21°C° 0 mm 0 mps 702 mmHg 98%
    06:00 +21°C° 0 mm 0 mps 702 mmHg 98%
    07:00 +22°C° 0 mm 0 mps 703 mmHg 97%
    08:00 +24°C° 0.4 mm 0 mps 703 mmHg 89%
    09:00 +27°C° 0.4 mm 1 mps 704 mmHg 82%
    10:00 +29°C° 0.4 mm 1 mps 704 mmHg 74%
    11:00 +31°C° 0 mm 1 mps 704 mmHg 66%
    12:00 +32°C° 0 mm 1 mps 703 mmHg 58%
    13:00 +32°C° 0 mm 0 mps 703 mmHg 52%
    14:00 +31°C° 0.1 mm 0 mps 702 mmHg 54%
    15:00 +31°C° 0.1 mm 0 mps 702 mmHg 55%
    16:00 +30°C° 0.1 mm 0 mps 701 mmHg 57%
    17:00 +28°C° 0.3 mm 0 mps 701 mmHg 67%
    18:00 +26°C° 0.3 mm 0 mps 701 mmHg 77%
    19:00 +24°C° 0.3 mm 0 mps 701 mmHg 87%
    20:00 +23°C° 1 mm 0 mps 701 mmHg 90%
    21:00 +22°C° 1 mm 0 mps 702 mmHg 93%
    22:00 +24°C° 1 mm 1 mps 702 mmHg 96%
    23:00 +22°C° 0 mm 0 mps 702 mmHg 97%

    Tomorrow, 23 April, Tuesday

    Time Temperature Precipitation Wind Pressure Humidity
    00:00 +21°C° 0 mm 0 mps 702 mmHg 97%
    01:00 +21°C° 0 mm 0 mps 701 mmHg 98%
    02:00 +21°C° 0 mm 0 mps 701 mmHg 98%
    03:00 +21°C° 0 mm 0 mps 701 mmHg 98%
    04:00 +23°C° 0 mm 1 mps 701 mmHg 98%
    05:00 +21°C° 0 mm 0 mps 701 mmHg 98%
    06:00 +21°C° 0 mm 0 mps 701 mmHg 98%
    07:00 +21°C° 0 mm 0 mps 702 mmHg 97%
    08:00 +26°C° 0 mm 1 mps 702 mmHg 87%
    09:00 +28°C° 0 mm 1 mps 703 mmHg 77%
    10:00 +30°C° 0 mm 1 mps 704 mmHg 66%
    11:00 +32°C° 0 mm 1 mps 704 mmHg 59%
    12:00 +32°C° 0 mm 0 mps 703 mmHg 52%
    13:00 +34°C° 0 mm 0 mps 703 mmHg 45%
    14:00 +32°C° 0.5 mm 0 mps 702 mmHg 58%
    15:00 +29°C° 0.5 mm 0 mps 701 mmHg 71%
    16:00 +29°C° 0.5 mm 1 mps 701 mmHg 84%
    17:00 +25°C° 0.7 mm 0 mps 701 mmHg 88%
    18:00 +24°C° 0.7 mm 0 mps 701 mmHg 91%
    19:00 +23°C° 0.7 mm 0 mps 702 mmHg 94%
    20:00 +24°C° 0.1 mm 1 mps 702 mmHg 95%
    21:00 +24°C° 0.1 mm 1 mps 703 mmHg 96%
    22:00 +24°C° 0.1 mm 1 mps 703 mmHg 97%
    23:00 +23°C° 0 mm 1 mps 703 mmHg 97%

    Day after tomorrow, 24 April, Wednesday

    Time Temperature Precipitation Wind Pressure Humidity
    00:00 +23°C° 0 mm 1 mps 703 mmHg 98%
    01:00 +23°C° 0 mm 1 mps 702 mmHg 99%
    02:00 +23°C° 0 mm 1 mps 702 mmHg 99%
    03:00 +23°C° 0 mm 1 mps 702 mmHg 99%
    04:00 +21°C° 0 mm 0 mps 701 mmHg 99%
    05:00 +21°C° 0 mm 0 mps 702 mmHg 98%
    06:00 +21°C° 0 mm 0 mps 702 mmHg 98%
    07:00 +21°C° 0 mm 0 mps 703 mmHg 97%
    08:00 +23°C° 0 mm 0 mps 704 mmHg 87%
    09:00 +28°C° 0 mm 1 mps 704 mmHg 77%
    10:00 +30°C° 0 mm 1 mps 705 mmHg 67%
    11:00 +30°C° 0.1 mm 1 mps 704 mmHg 65%
    12:00 +31°C° 0.1 mm 1 mps 704 mmHg 63%
    13:00 +29°C° 0.1 mm 0 mps 703 mmHg 62%
    14:00 +31°C° 0.9 mm 1 mps 702 mmHg 66%
    15:00 +31°C° 0.9 mm 1 mps 702 mmHg 70%
    16:00 +30°C° 0.9 mm 1 mps 701 mmHg 75%
    17:00 +29°C° 0.1 mm 1 mps 702 mmHg 80%
    18:00 +25°C° 0.1 mm 0 mps 702 mmHg 86%
    19:00 +24°C° 0.1 mm 0 mps 702 mmHg 91%
    20:00 +23°C° 1.4 mm 0 mps 703 mmHg 93%
    21:00 +25°C° 1.4 mm 1 mps 704 mmHg 95%
    22:00 +24°C° 1.4 mm 1 mps 704 mmHg 97%
    23:00 +24°C° 0.1 mm 1 mps 704 mmHg 98%

    25 April, Thursday

    Time Temperature Precipitation Wind Pressure Humidity
    00:00 +24°C° 0.1 mm 1 mps 704 mmHg 98%
    01:00 +23°C° 0.1 mm 1 mps 703 mmHg 99%
    02:00 +23°C° 0 mm 1 mps 703 mmHg 99%
    03:00 +23°C° 0 mm 1 mps 703 mmHg 99%
    04:00 +23°C° 0 mm 1 mps 702 mmHg 99%
    05:00 +23°C° 0 mm 1 mps 703 mmHg 98%
    06:00 +23°C° 0 mm 1 mps 703 mmHg 98%
    07:00 +21°C° 0 mm 0 mps 704 mmHg 98%
    08:00 +25°C° 0 mm 1 mps 704 mmHg 89%
    09:00 +27°C° 0 mm 1 mps 705 mmHg 81%
    10:00 +29°C° 0 mm 1 mps 705 mmHg 73%
    11:00 +31°C° 0 mm 1 mps 705 mmHg 64%
    12:00 +34°C° 0 mm 1 mps 704 mmHg 55%
    13:00 +34°C° 0 mm 0 mps 704 mmHg 46%
    14:00 +35°C° 0 mm 1 mps 703 mmHg 48%
    15:00 +34°C° 0 mm 1 mps 702 mmHg 51%
    16:00 +33°C° 0 mm 1 mps 701 mmHg 54%
    17:00 +30°C° 1.9 mm 1 mps 702 mmHg 67%
    18:00 +28°C° 1.9 mm 1 mps 702 mmHg 79%
    19:00 +25°C° 1.9 mm 2 mps 702 mmHg 92%
    20:00 +25°C° 0.8 mm 1 mps 702 mmHg 94%
    21:00 +24°C° 0.8 mm 1 mps 703 mmHg 96%
    22:00 +24°C° 0.8 mm 1 mps 703 mmHg 98%
    23:00 +24°C° 0 mm 1 mps 703 mmHg 98%

    26 April, Friday

    Time Temperature Precipitation Wind Pressure Humidity
    00:00 +24°C° 0 mm 1 mps 702 mmHg 98%
    01:00 +24°C° 0 mm 1 mps 702 mmHg 99%
    02:00 +23°C° 0 mm 1 mps 702 mmHg 99%
    03:00 +23°C° 0 mm 1 mps 702 mmHg 99%
    04:00 +23°C° 0 mm 1 mps 701 mmHg 99%
    05:00 +21°C° 0 mm 0 mps 702 mmHg 99%
    06:00 +21°C° 0 mm 0 mps 703 mmHg 98%
    07:00 +21°C° 0 mm 0 mps 703 mmHg 98%
    08:00 +23°C° 0 mm 0 mps 704 mmHg 90%
    09:00 +25°C° 0 mm 0 mps 704 mmHg 81%
    10:00 +29°C° 0 mm 1 mps 705 mmHg 73%
    11:00 +30°C° 0 mm 1 mps 704 mmHg 68%
    12:00 +31°C° 0 mm 1 mps 704 mmHg 62%
    13:00 +31°C° 0 mm 0 mps 703 mmHg 57%
    14:00 +30°C° 0 mm 0 mps 702 mmHg 59%
    15:00 +30°C° 0 mm 0 mps 702 mmHg 60%
    16:00 +29°C° 0 mm 0 mps 701 mmHg 61%
    17:00 +28°C° 0 mm 0 mps 701 mmHg 68%
    18:00 +26°C° 0 mm 0 mps 702 mmHg 75%
    19:00 +25°C° 0 mm 0 mps 702 mmHg 82%
    20:00 +24°C° 0 mm 0 mps 702 mmHg 86%
    21:00 +25°C° 0 mm 1 mps 702 mmHg 89%
    22:00 +25°C° 0 mm 1 mps 703 mmHg 93%
    23:00 +25°C° 0 mm 1 mps 702 mmHg 95%

    27 April, Saturday

    Time Temperature Precipitation Wind Pressure Humidity
    00:00 +24°C° 0 mm 1 mps 702 mmHg 97%
    01:00 +24°C° 0 mm 1 mps 702 mmHg 99%
    02:00 +24°C° 0 mm 1 mps 701 mmHg 98%
    03:00 +24°C° 0 mm 1 mps 701 mmHg 98%
    04:00 +24°C° 0 mm 1 mps 701 mmHg 98%
    05:00 +24°C° 0 mm 1 mps 702 mmHg 97%
    06:00 +24°C° 0 mm 1 mps 702 mmHg 95%
    07:00 +24°C° 0 mm 1 mps 703 mmHg 94%
    08:00 +26°C° 0 mm 1 mps 704 mmHg 87%
    09:00 +27°C° 0 mm 1 mps 704 mmHg 80%
    10:00 +29°C° 0 mm 1 mps 705 mmHg 73%
    11:00 +30°C° 0.1 mm 1 mps 704 mmHg 68%
    12:00 +31°C° 0.1 mm 1 mps 704 mmHg 62%
    13:00 +33°C° 0.1 mm 1 mps 703 mmHg 56%
    14:00 +32°C° 0.7 mm 1 mps 702 mmHg 65%
    15:00 +31°C° 0.7 mm 1 mps 702 mmHg 74%
    16:00 +30°C° 0.7 mm 1 mps 701 mmHg 83%
    17:00 +28°C° 0.7 mm 1 mps 701 mmHg 87%
    18:00 +26°C° 0.7 mm 1 mps 702 mmHg 91%
    19:00 +25°C° 0.7 mm 1 mps 702 mmHg 95%
    20:00 +25°C° 0 mm 1 mps 702 mmHg 96%
    21:00 +24°C° 0 mm 1 mps 702 mmHg 96%
    22:00 +24°C° 0 mm 1 mps 703 mmHg 97%
    23:00 +24°C° 0 mm 1 mps 702 mmHg 97%
    Show more